Location: Charmois
(47.4974°N, 3.4325°E)
Time: 08:12:10
(UTC+00:00)

Daily predictions for brighter satellites

Satellite Brightness Start Highest point End
(mag) Time Altitude Azimuth Time Altitude Azimuth Time Altitude Azimuth
Cosmos 1980 3.7 18:31:56 10° SSW 18:37:35 72° ESE 18:43:17 10° NNE
S3M 4.1 18:33:52 10° S 18:40:05 59° E 18:46:23 10° NNE
Cosmos 2084 3.9 18:37:17 10° SW 18:41:45 72° NW 18:46:15 10° NE
Ariane Rocket 3.2 18:37:15 10° SE 18:42:11 55° ENE 18:47:09 10° N
STARLINK-1224 4.2 18:38:31 10° SSW 18:42:13 36° SE 18:45:56 10° ENE
YAOGAN 1 3.6 18:38:08 10° S 18:42:21 52° W 18:46:37 10° NNW
BREEZE-M DEB (TANK) 4.2 18:26:55 10° WNW 18:42:54 62° SW 18:46:40 10° SE
Cosmos 1386 Rocket 4.5 18:37:18 10° N 18:43:20 64° ENE 18:49:17 10° SSE
SL-08 ROCKET BODY 4.5 18:37:25 10° N 18:43:33 63° ENE 18:49:31 10° SSE
Cosmos 1455 Rocket 3.5 18:41:08 10° SSE 18:45:11 40° E 18:49:16 10° NNE
STARLINK-1225 4.1 18:43:08 10° SSW 18:46:53 39° SE 18:50:40 10° ENE
Cosmos 1110 Rocket 4.0 18:41:54 10° NNW 18:47:11 71° ENE 18:52:23 10° SSE
Cosmos 332 Rocket 4.0 18:43:29 10° NNW 18:48:25 82° WSW 18:53:20 10° SSE
STARLINK-1203 3.9 18:45:04 10° SSW 18:48:48 43° SE 18:52:33 10° ENE
STARLINK-1072 3.6 18:46:12 10° WNW 18:50:13 76° NNE 18:54:13 10° ESE
Cosmos 1892 Rocket 3.6 18:46:32 10° N 18:51:02 74° E 18:55:30 10° SSE
SL-16 R/B 2.8 18:46:11 10° SSE 18:51:12 34° ESE 18:56:15 10° NE
STARLINK-1230 4.0 18:47:41 10° SSW 18:51:30 42° SE 18:55:20 10° ENE
Cosmos 2333 Rocket 3.7 18:46:13 10° WSW 18:51:34 40° NW 18:56:54 10° NNE
STARLINK-1103 4.5 18:49:54 10° WNW 18:53:51 42° N 18:57:49 10° E
USA 186 2.3 18:51:18 10° SE 18:54:33 42° ENE 18:57:48 10° N
STARLINK-1096 3.5 18:50:40 10° WNW 18:54:40 80° NNE 18:58:31 11° ESE
STARLINK-1234 2.7 18:51:46 10° WSW 18:54:45 82° SSE 18:57:45 10° ENE
CSL-04 Rocket 4.5 18:49:54 10° S 18:55:06 55° W 19:00:18 10° NNW
Cosmos 1953 4.2 18:53:55 10° ESE 18:55:25 12° E 18:56:56 10° ENE
Cosmos 1626 2.7 18:52:03 10° N 18:55:32 37° ENE 18:58:59 10° SE
ARGOS Delta rocket 4.1 18:50:33 10° SSE 18:55:36 69° ENE 19:00:57 10° N
STARLINK-1243 3.9 18:52:19 10° SW 18:56:11 45° SE 19:00:03 10° ENE
NOSS 2-1 (E) 3.8 18:54:13 10° SW 18:57:33 56° NW 19:01:19 10° NE
STARLINK-1101 4.4 18:54:54 10° WNW 18:58:52 43° NNE 19:02:46 10° E
Okean 1-7 Rocket 3.5 18:54:31 10° N 18:58:57 77° E 19:03:20 10° SSE
STARLINK-1079 3.5 18:55:08 10° WNW 18:59:09 84° NNE 19:02:49 12° ESE
STARLINK-1236 3.8 18:56:56 10° SW 19:00:49 49° SE 19:04:44 10° ENE
ATLAS 2AS CENTAUR R/B 4.3 18:56:46 10° NW 19:03:18 27° NNE 19:09:28 10° ENE
STARLINK-1116 3.5 18:59:36 10° WNW 19:03:38 88° NNE 19:07:08 13° ESE
STARLINK-1102 4.4 18:59:53 10° WNW 19:03:52 44° NNE 19:07:32 12° E
SJ-11-01 4.4 19:00:45 10° SSE 19:05:27 85° WSW 19:10:12 10° NNW
H-2A R/B 2.1 19:01:10 10° SSE 19:06:29 73° ENE 19:11:39 10° N
STARLINK-1111 4.3 19:04:52 10° WNW 19:08:52 45° NNE 19:12:19 13° E
Aureole 2 Rocket 4.5 19:07:12 10° NNE 19:09:12 14° NE 19:10:31 12° ENE
STARLINK-1118 4.4 19:07:54 10° W 19:09:34 19° SW 19:11:15 10° S
STARLINK-1269 3.6 19:06:15 10° SW 19:10:13 57° SE 19:14:11 10° ENE
ERBS 3.7 19:09:02 10° W 19:12:13 38° NNW 19:15:25 10° NE
Cosmos 1544 Rocket 3.6 19:08:16 10° S 19:12:34 59° E 19:16:56 10° NNE
STARLINK-1094 3.5 19:08:35 10° WNW 19:12:36 82° SSW 19:15:46 16° ESE
Cosmos 1745 Rocket 4.3 19:06:44 10° NNW 19:13:03 74° W 19:19:15 10° S
STARLINK-1073 4.3 19:09:52 10° WNW 19:13:52 46° NNE 19:17:06 15° E
STARLINK-1200 3.6 19:10:55 10° SW 19:14:53 61° SSE 19:18:53 10° ENE
Cosmos 2297 3.7 19:09:13 10° NNW 19:14:55 75° ENE 19:20:36 10° SSE
USA 234 3.4 19:09:19 10° ENE 19:15:40 50° SE 19:21:59 10° SSW
CZ-2C R/B 4.3 19:11:22 10° NNE 19:15:48 37° E 19:20:09 10° SSE
STARLINK-1117 3.6 19:13:06 10° WNW 19:17:07 77° SSW 19:20:06 17° SE
Meteor 2-5 Rocket 4.4 19:12:50 10° NNW 19:18:26 59° W 19:23:53 10° S
STARLINK-1121 4.2 19:14:51 10° WNW 19:18:53 48° NNE 19:21:53 17° E
STARLINK-1192 3.5 19:15:31 10° SW 19:19:31 65° SSE 19:23:25 11° ENE
ADEOS Rocket 4.2 19:13:58 10° N 19:20:36 51° WNW 19:26:34 10° SW
Cosmos 1805 4.3 19:17:26 10° SSW 19:21:14 49° WNW 19:25:03 10° N
Cosmos 2237 Rocket 2.8 19:15:47 10° SW 19:21:19 60° WNW 19:26:56 10° NNE
STARLINK-1078 3.6 19:17:35 10° WNW 19:21:37 73° SSW 19:24:26 19° SE
STARLINK-1106 4.2 19:19:49 10° WNW 19:23:52 50° NNE 19:26:39 19° E
STARLINK-1244 3.5 19:20:17 10° SW 19:24:19 70° SSE 19:28:01 12° ENE
STARLINK-1201 3.0 19:21:26 10° WSW 19:24:42 79° NNW 19:27:30 13° ENE
Cosmos 1302 Rocket 4.0 19:19:27 10° NNW 19:24:44 71° ENE 19:29:44 11° SSE
STARLINK-1108 3.7 19:22:07 10° WNW 19:26:08 68° SSW 19:28:48 20° SE
Cosmos 2278 Rocket 4.1 19:21:59 10° NW 19:26:50 30° WSW 19:31:40 10° SSW
CZ-2C R/B 3.3 19:23:12 10° NNE 19:27:47 31° E 19:32:19 10° SSE
Cosmos 1269 Rocket 4.0 19:23:19 10° SSW 19:28:37 81° ESE 19:33:57 10° NNE
STARLINK-1112 4.1 19:24:49 10° WNW 19:28:53 52° NNE 19:31:27 21° E
STARLINK-1138 3.5 19:24:58 10° SW 19:29:00 75° SSE 19:32:32 13° ENE
STARLINK-1209 3.4 19:27:13 10° WSW 19:30:05 53° NNW 19:32:14 16° NE
STARLINK-1066 4.0 19:27:31 10° WNW 19:30:29 36° SW 19:32:18 19° SSE
STARLINK-1071 3.8 19:26:39 10° WNW 19:30:38 64° SW 19:33:08 22° SE
STARLINK-1081 4.0 19:28:00 10° WNW 19:30:54 35° SW 19:32:41 19° SSE
STARLINK-1228 3.4 19:28:13 10° W 19:31:02 52° NNW 19:33:09 16° NE
STARLINK-1070 4.1 19:28:27 10° WNW 19:31:21 35° SW 19:33:06 19° SSE
STARLINK-1124 3.9 19:27:33 10° WNW 19:31:39 63° SW 19:34:14 22° SE
STARLINK-1069 4.1 19:28:52 10° WNW 19:31:47 35° SW 19:33:34 19° SSE
STARLINK-1085 4.1 19:29:18 10° WNW 19:32:14 35° SW 19:34:00 19° SSE
STARLINK-1086 4.1 19:29:49 10° WNW 19:32:41 34° SW 19:34:25 19° SSE
STARLINK-1095 4.1 19:30:16 10° WNW 19:33:08 34° SW 19:34:50 19° SSE
STARLINK-1077 4.1 19:30:43 10° WNW 19:33:35 34° SW 19:35:16 19° SSE
Meteor 1-24 Rocket 4.3 19:28:19 10° NNW 19:33:47 59° W 19:39:02 10° S
STARLINK-1143 3.5 19:29:43 10° SW 19:33:47 80° SSE 19:37:08 15° ENE
STARLINK-1128 4.0 19:29:49 10° WNW 19:33:54 54° NNE 19:36:15 23° E
STARLINK-1075 4.2 19:31:10 10° WNW 19:34:02 33° SW 19:35:42 19° SSE
STARLINK-1093 4.2 19:31:35 10° WNW 19:34:29 34° SW 19:36:10 19° SSE
ARGOS 3.3 19:29:11 10° S 19:34:35 79° WSW 19:40:01 10° NNW
SL-8 R/B 3.7 19:30:02 10° W 19:34:49 78° N 19:38:02 21° E
STARLINK-1074 4.2 19:32:02 10° WNW 19:34:56 33° SW 19:36:35 19° SSE
STARLINK-1110 3.9 19:31:10 10° WNW 19:35:09 59° SW 19:37:29 23° SE
STARLINK-1087 4.2 19:32:32 10° WNW 19:35:23 33° SW 19:37:00 19° SSE
Cosmos 2251 Rocket 4.3 19:31:05 10° SSE 19:35:37 29° E 19:40:12 10° NE
STARLINK-1088 4.2 19:32:59 10° WNW 19:35:50 32° SW 19:37:26 19° SSE
STARLINK-1115 4.2 19:33:24 10° WNW 19:36:17 32° SW 19:37:55 19° SSE
STARLINK-1076 4.2 19:33:51 10° WNW 19:36:43 32° SW 19:38:20 20° SSE
STARLINK-1092 4.3 19:34:19 10° WNW 19:37:11 32° SW 19:38:47 20° SSE
STARLINK-1080 4.3 19:34:49 10° WNW 19:37:38 31° SW 19:39:10 20° S
SL-24 R/B 4.2 19:33:09 10° NNE 19:37:45 52° E 19:41:45 10° S
STARLINK-1090 4.3 19:35:15 10° WNW 19:38:04 31° SW 19:39:36 20° S
STARLINK-1089 4.3 19:35:43 10° WNW 19:38:31 31° SW 19:40:02 20° S
STARLINK-1113 4.0 19:34:48 10° WNW 19:38:54 56° NNE 19:41:02 26° E
STARLINK-1107 4.3 19:36:10 10° WNW 19:38:58 30° SW 19:40:28 20° S
Cosmos 1470 2.6 19:37:34 10° S 19:41:25 74° E 19:45:19 10° NNE
STARLINK-1119 3.9 19:39:46 10° WNW 19:43:53 59° NNE 19:45:48 29° E
STARLINK-1241 3.5 19:40:11 10° WSW 19:44:13 89° N 19:47:06 18° ENE
STARLINK-1122 4.1 19:40:22 10° WNW 19:44:17 51° SW 19:46:17 26° SSE
STARLINK-1233 3.5 19:41:24 10° WSW 19:44:30 56° NNW 19:46:20 21° NE
STARLINK-1212 3.5 19:41:52 10° WSW 19:44:57 55° NNW 19:46:46 22° NE
STARLINK-1105 3.5 19:42:18 10° WSW 19:45:24 55° NNW 19:47:13 22° NE
Cosmos 2315 Rocket 4.0 19:39:20 10° S 19:45:39 87° E 19:52:04 10° N
SL-08 RB Rocket 3.7 19:41:14 10° S 19:45:44 80° WSW 19:50:20 10° NNW
STARLINK-1206 3.5 19:42:48 10° WSW 19:45:52 55° NNW 19:47:38 22° NE
STARLINK-1247 3.5 19:43:14 10° WSW 19:46:19 54° NNW 19:48:03 22° NE
STARLINK-1227 3.5 19:43:39 10° WSW 19:46:44 54° NNW 19:48:30 22° NE
SJ-6B 3.4 19:42:52 10° S 19:46:53 61° W 19:50:59 10° NNW
ISS -3.2 19:43:45 10° WNW 19:47:02 49° NNE 19:48:11 32° ENE
STARLINK-1218 3.5 19:44:09 10° W 19:47:12 54° NNW 19:48:55 23° NE
MetOp-A 4.1 19:42:29 13° SSE 19:47:21 79° ENE 19:52:45 10° NNW
Resurs 1-3 3.5 19:44:43 20° SSE 19:47:39 69° ENE 19:52:02 10° N
STARLINK-1226 3.5 19:44:37 10° W 19:47:41 53° NNW 19:49:23 23° NE
STARLINK-1254 3.5 19:45:01 10° W 19:48:06 53° NNW 19:49:48 23° NE
STARLINK-1215 3.5 19:45:31 10° W 19:48:35 53° NNW 19:50:14 23° NE
STARLINK-1239 3.5 19:44:46 10° WSW 19:48:48 85° NNW 19:51:30 20° ENE
STARLINK-1114 3.8 19:44:46 10° WNW 19:48:53 62° NNE 19:50:36 32° E
STARLINK-1126 4.2 19:45:01 10° WNW 19:48:54 48° SW 19:50:44 27° SSE
STARLINK-1231 3.5 19:45:57 10° W 19:49:01 52° NNW 19:50:39 24° NE
Cosmos 1758 3.2 19:45:14 10° S 19:49:19 83° E 19:53:27 10° N
STARLINK-1232 3.6 19:46:52 10° W 19:49:55 52° NNW 19:51:31 24° NE
STARLINK-1217 3.6 19:47:20 10° W 19:50:23 51° NNW 19:51:58 24° NE
STARLINK-1208 3.6 19:47:45 10° W 19:50:49 51° NNW 19:52:25 24° NE
STARLINK-1229 3.6 19:48:13 10° W 19:51:16 51° NNW 19:52:48 25° NE
STARLINK-1271 3.6 19:48:41 10° W 19:51:44 51° NNW 19:53:16 25° NE
BREEZE-M DEB (TANK) 3.7 19:44:48 10° WNW 19:51:52 71° N 19:53:10 35° E
STARLINK-1270 3.6 19:49:09 10° W 19:52:12 50° NNW 19:53:42 25° NE
BREEZE M DEB (TANK) 4.4 19:42:52 10° SSW 19:52:29 32° SSE 19:53:50 28° SE
IRIDIUM 104 4.3 19:47:16 10° N 19:52:30 66° E 19:56:26 18° SSE
STARLINK-1154 3.6 19:49:35 10° W 19:52:38 50° NNW 19:54:07 25° NE
CZ-2C R/B 3.8 19:48:25 10° S 19:53:21 50° W 19:58:05 10° NNW
STARLINK-1240 3.6 19:49:23 10° WSW 19:53:24 80° NNW 19:55:56 22° ENE
STARLINK-1082 4.3 19:49:35 10° WNW 19:53:27 44° SW 19:55:08 28° SSE
STARLINK-1197 3.7 19:50:30 10° W 19:53:32 49° NNW 19:54:59 26° NE
STARLINK-1130 (DARKSAT) 3.8 19:49:43 10° WNW 19:53:52 65° NNE 19:55:22 36° E
STARLINK-1189 3.7 19:50:57 10° W 19:54:00 49° NNW 19:55:26 26° NE
STARLINK-1187 3.8 19:51:50 10° W 19:54:52 46° NNW 19:56:20 25° NE
STARLINK-1188 3.7 19:51:51 10° W 19:54:53 49° NNW 19:56:17 27° NE
Resurs 01 Rocket 1.7 19:53:05 31° SE 19:55:01 58° ENE 19:59:22 10° N
STARLINK-1198 3.7 19:52:05 10° W 19:55:07 48° NNW 19:56:31 27° NE
Cosmos 2369 Rocket 2.5 19:49:41 10° NNW 19:55:17 53° ENE 19:57:50 30° ESE
STARLINK-1235 4.0 19:52:34 10° W 19:55:35 43° NNW 19:57:05 24° NE
Abrixas rocket 4.3 19:53:32 10° SSW 19:54:14 14° SSW 19:54:14 14° SSW
STARLINK-1199 3.7 19:53:48 10° W 19:56:52 48° NNW 19:58:12 27° NE
STARLINK-1191 3.7 19:54:16 10° W 19:57:19 47° NNW 19:58:39 27° NE
STARLINK-67 4.1 19:55:03 10° WNW 19:57:23 29° NNW 19:58:04 25° NNE
STARLINK-1210 3.8 19:54:42 10° W 19:57:46 47° NNW 19:59:04 28° NE
STARLINK-1100 4.4 19:54:11 10° WNW 19:58:00 42° SW 19:59:31 29° S
STARLINK-1216 3.6 19:54:01 10° WSW 19:58:01 76° NNW 20:00:23 24° ENE
STARLINK-1221 3.8 19:55:10 10° W 19:58:14 47° NNW 19:59:32 28° NE
STARLINK-1219 3.8 19:55:37 10° W 19:58:41 47° NNW 19:59:57 28° NE
STARLINK-1084 3.7 19:54:42 10° WNW 19:58:51 68° NNE 20:00:09 41° E
STARLINK-1222 3.8 19:56:04 10° W 19:59:07 47° NNW 20:00:23 28° NE
STARLINK-1211 3.8 19:56:32 10° W 19:59:34 46° NNW 20:00:48 29° NE
STARLINK-1214 3.8 19:57:00 10° W 20:00:02 46° NNW 20:01:15 29° NE
STARLINK-1245 3.8 19:57:29 10° W 20:00:30 46° NNW 20:01:40 29° NE
STARLINK-1238 3.8 19:57:55 10° W 20:00:56 46° NNW 20:02:07 29° NE
IRIDIUM 114 4.2 19:56:25 10° N 20:01:40 80° E 20:05:35 18° S
Meteor 2-15 Rocket 4.3 19:55:37 10° S 20:01:41 84° E 20:07:47 10° N
STARLINK-1205 3.8 19:58:51 10° W 20:01:52 45° NNW 20:02:58 30° NNE
STARLINK-1204 3.8 19:59:17 10° W 20:02:18 45° NNW 20:03:23 30° NNE
STARLINK-1237 3.7 19:58:41 10° WSW 20:02:42 72° NNW 20:04:52 26° NE
STARLINK-1098 3.6 19:59:40 10° WNW 20:03:49 72° NNE 20:04:55 46° E
SPOT 3 Rocket 3.8 20:00:43 12° S 20:05:35 68° WSW 20:10:49 10° NNW
Cosmos 1726 2.6 20:06:29 41° ENE 20:06:29 41° ENE 20:09:30 10° NNE
STARLINK-1202 3.8 20:03:19 10° WSW 20:07:19 68° NNW 20:09:19 28° NE
Meteor 1-21 Rocket 4.1 20:02:27 10° N 20:08:04 86° E 20:11:31 24° SSE
Nadezhda 1 Rocket 4.4 20:06:17 30° SE 20:08:49 43° E 20:14:47 10° NNE
STARLINK-1123 3.6 20:04:40 10° WNW 20:08:49 76° NNE 20:09:44 53° E
Cosmos 2228 3.9 20:11:02 32° ENE 20:11:02 32° ENE 20:14:05 10° NNE
IRIDIUM 103 4.3 20:05:35 10° N 20:10:51 86° W 20:14:45 18° S
STARLINK-1246 3.9 20:08:26 10° WSW 20:12:28 65° NNW 20:14:18 30° NE
MOS 1 Rocket 3.5 20:07:42 10° NNE 20:12:55 77° ESE 20:18:18 10° S
STARLINK-1097 3.5 20:09:37 10° WNW 20:13:47 81° NNE 20:14:29 60° E
Cosmos 292 Rocket 3.7 20:12:52 10° NNW 20:17:41 86° ENE 20:19:07 46° SSE
Cosmos 1943 3.8 20:19:28 36° E 20:19:28 36° E 20:23:50 10° NE
STARLINK-1099 3.5 20:14:37 10° WNW 20:18:47 85° NNE 20:19:17 68° ESE
Cosmos 1943 Rocket 2.1 20:15:03 10° NNW 20:20:36 82° WSW 20:22:51 37° SSE
STARLINK-1224 4.0 20:17:20 10° WSW 20:21:20 59° NNW 20:22:45 36° NE
NOSS 3-4 (A) 4.5 20:16:28 10° NW 20:22:52 41° NE 20:25:57 29° E
Cosmos 2074 Rocket 3.9 20:16:54 10° N 20:23:12 88° E 20:26:45 28° S
STARLINK-1104 3.4 20:19:36 10° WNW 20:23:46 90° SW 20:24:04 77° ESE
STARLINK-1225 4.1 20:22:04 10° W 20:26:03 56° NNW 20:27:17 38° NE
Cosmos 1328 4.2 20:23:22 10° N 20:26:45 49° NE 20:26:45 49° NE
STARLINK-1203 4.1 20:23:48 10° W 20:27:40 52° NNW 20:28:44 39° NNE
STARLINK-1144 3.4 20:24:34 10° WNW 20:28:43 85° SSW 20:28:50 83° SSE
Cosmos 1437 4.1 20:26:44 10° N 20:28:32 33° N 20:28:32 33° N
STARLINK-1230 4.1 20:26:45 10° W 20:30:43 54° NNW 20:31:44 41° NNE
Cosmos 1953 2.7 20:29:29 30° SSW 20:31:16 62° WNW 20:35:13 10° N
Meteor 2-10 4.0 20:28:33 24° S 20:31:55 86° E 20:37:29 10° NNE
SPOT 1/Viking Rocket 3.8 20:32:06 47° E 20:32:29 48° ENE 20:37:30 10° N
NOSS 3-3 (A) 3.9 20:27:03 10° SSW 20:32:44 57° ESE 20:39:08 10° NE
NOSS 3-3 (C) 3.9 20:27:09 10° SSW 20:32:51 56° ESE 20:39:14 10° NE
STARLINK-1103 3.5 20:29:32 10° WNW 20:33:37 79° SW 20:33:37 79° SW
Spot 2 Rocket 3.4 20:33:07 58° SE 20:34:03 74° ENE 20:39:10 10° N
Cosmos 2084 Rocket 3.5 20:30:29 10° NW 20:34:57 72° SW 20:35:19 67° SSW
SL-16 R/B 3.3 20:29:49 10° SW 20:35:12 44° NW 20:40:38 10° NNE
STARLINK-1243 4.2 20:31:29 10° W 20:35:26 52° NNW 20:36:16 43° NNE
Cosmos 1610 Rocket 4.4 20:30:59 10° N 20:37:15 75° E 20:39:03 48° SSE
STARLINK-1101 3.7 20:34:32 10° WNW 20:38:25 71° WSW 20:38:25 71° WSW
STARLINK-1236 4.3 20:36:11 10° W 20:40:07 50° NNW 20:40:45 45° NNE
IGS 5A 4.0 20:42:14 48° NNE 20:42:14 48° NNE 20:45:33 10° N
Aureole 2 Rocket 3.4 20:39:54 10° NNW 20:42:44 45° WNW 20:42:44 45° WNW
STARLINK-1102 3.9 20:39:32 10° WNW 20:43:11 62° WSW 20:43:11 62° WSW
STARLINK-1111 4.1 20:44:31 10° WNW 20:47:58 55° W 20:47:58 55° W
Terra 3.1 20:49:36 29° NE 20:49:36 29° NE 20:52:52 10° N
STARLINK-1269 4.4 20:45:40 10° W 20:49:35 47° NNW 20:49:49 46° N
Cosmos 2341 Rocket 4.1 20:47:08 10° N 20:53:23 56° ENE 20:53:51 55° E
STARLINK-1073 4.4 20:49:30 10° WNW 20:52:45 48° W 20:52:45 48° W
Cosmos 1703 3.9 20:50:00 10° NNW 20:53:09 54° NW 20:53:09 54° NW
Cosmos 1726 Rocket 4.0 20:55:09 53° N 20:55:09 53° N 20:58:35 10° N
STARLINK-1200 4.5 20:50:25 10° W 20:54:19 45° NNW 20:54:21 45° NNW
ATLAS 2AS CENTAUR R/B 3.0 20:48:18 10° NW 20:55:56 60° NE 20:57:42 48° E
Meteor 1-16 Rocket 4.3 20:54:16 34° SSW 20:56:37 70° WNW 21:02:06 10° N
Cosmos 1603 3.6 20:53:25 27° SSW 20:56:40 90° N 21:02:19 10° NNE
Cosmos 1825 Rocket 4.2 20:53:09 10° NNW 20:57:27 50° W 20:57:49 48° WSW
USA 234 3.6 20:52:21 10° NE 20:58:49 65° NNW 21:05:17 10° WSW
Aureole 1 Rocket 4.3 21:07:14 60° SE 21:07:49 62° ESE 21:14:26 10° NNE
CZ-2C R/B 3.8 21:03:22 10° N 21:08:11 39° WNW 21:12:57 10° SW
COSMOS 2455 3.6 21:05:13 10° NNW 21:10:51 38° NE 21:11:09 38° NE
Meteor 1-11 4.3 21:05:46 10° NNW 21:11:35 75° W 21:12:06 70° SW
Cosmos 1953 Rocket 4.4 21:08:47 10° NNW 21:12:43 49° WNW 21:12:43 49° WNW
Cosmos 1295 Rocket 4.5 21:09:43 10° N 21:15:59 79° W 21:16:48 67° SSW
Cosmos 2218 Rocket 4.3 21:16:02 10° N 21:21:25 53° NE 21:21:25 53° NE
Cosmos 1656 Rocket 3.8 21:17:12 10° NNW 21:22:37 72° W 21:22:37 72° W
ISS -0.7 21:20:37 10° WNW 21:21:09 14° WNW 21:21:09 14° WNW
ERS-1 Rocket 3.4 21:28:47 59° NW 21:28:47 59° NW 21:32:59 10° NNW
Resurs 01 Rocket 4.0 21:30:38 15° WSW 21:31:53 16° W 21:34:39 10° NW
Cosmos 2181 Rocket 4.2 21:33:10 58° NE 21:33:10 58° NE 21:38:17 10° NNE
SPOT 5 4.0 21:35:19 37° NNW 21:35:19 37° NNW 21:38:01 10° NNW
Cosmos 2369 Rocket 3.6 21:34:15 10° NW 21:39:00 28° WSW 21:39:39 27° WSW
SL-8 Rocket 4.2 21:50:56 10° NNW 21:56:35 67° NW 21:56:35 67° NW
Cosmos 1943 4.3 22:01:06 33° W 22:02:39 40° NW 22:08:00 10° NNE
CZ-4C R/B 4.4 21:57:30 10° NW 22:02:49 25° NNE 22:06:32 17° ENE
Cosmos 2366 rocket 4.3 21:58:16 10° NNW 22:03:18 61° NNW 22:03:18 61° NNW
Mayak 1.6 22:06:32 10° NNE 22:06:55 12° NNE 22:06:55 12° NNE
NOSS 3-4 (A) 4.1 22:07:17 10° NW 22:13:24 61° W 22:13:24 61° W
NOSS 3-4 (C) 4.1 22:07:23 10° NW 22:13:29 61° W 22:13:29 61° W
Terra 3.9 22:28:29 23° NW 22:28:29 23° NW 22:30:42 10° NNW
Cosmos 1697 Rocket 4.4 22:22:28 10° NNW 22:26:03 27° NNE 22:26:03 27° NNE
USA 234 4.3 22:35:16 10° ENE 22:41:15 40° N 22:47:15 10° WNW
ATLAS 2AS CENTAUR R/B 3.9 22:39:48 10° NW 22:45:07 36° W 22:45:07 36° W
Cosmos 1980 Rocket 4.0 22:47:36 10° N 22:50:55 24° NNE 22:50:55 24° NNE
COSMOS 2455 4.4 22:51:09 10° NW 22:54:18 30° WNW 22:54:18 30° WNW
